DW4407 Weather Reports


Display with metric or nautical units.
time (UTC)temp
F
wind
direction
speed
MPH
gust
MPH
rain 1hr
in
rain 24hr
in
rain mn
in
humidity
%
barometer
mb
20260510174512 38 251 0.0 0.0 0.00 0.00 0.00 91 1032.8
20260510173011 38 251 0.0 0.0 0.00 0.00 0.00 91 1032.6
20260510171511 38 251 0.0 0.0 0.00 0.00 0.00 91 1032.7
20260510170010 38 251 0.0 0.0 0.00 0.00 0.00 91 1032.6
20260510164520 37 251 0.0 0.0 0.00 0.00 0.00 91 1032.8
20260510163005 38 251 0.0 0.0 0.00 0.00 0.00 91 1032.9
20260510161502 38 251 0.0 0.0 0.00 0.00 0.00 91 1033.0
20260510160100 39 251 0.0 0.0 0.00 0.00 0.00 91 1033.0
20260510154602 39 251 0.0 0.0 0.00 0.00 0.00 91 1033.1
20260510153101 39 251 0.0 0.0 0.00 0.00 0.00 90 1033.1
20260510151556 39 251 0.0 0.0 0.00 0.00 0.00 90 1033.2
20260510150119 40 251 0.0 0.0 0.00 0.00 0.00 90 1033.3
20260510144552 40 251 0.0 0.0 0.00 0.00 0.00 90 1033.3
20260510143047 41 251 0.0 0.0 0.00 0.00 0.00 90 1033.3
20260510141545 42 251 0.0 0.0 0.00 0.00 0.00 90 1033.3
20260510140041 43 251 0.0 0.0 0.00 0.00 0.00 89 1033.3
20260510134539 44 251 0.0 0.0 0.00 0.00 0.00 89 1033.3
20260510133035 45 251 0.0 0.0 0.00 0.00 0.00 88 1033.2
20260510131532 46 251 0.0 0.0 0.00 0.00 0.00 88 1033.2
20260510130029 47 251 0.0 0.0 0.00 0.00 0.00 87 1033.2
20260510124529 48 251 0.0 0.0 0.00 0.00 0.00 85 1033.2
20260510123028 50 251 0.0 0.0 0.00 0.00 0.00 84 1033.2
20260510121527 52 251 0.0 0.0 0.00 0.00 0.00 84 1033.2
20260510120027 52 251 0.0 0.0 0.00 0.00 0.00 85 1033.2
20260510114528 52 248 0.0 0.0 0.00 0.00 0.00 86 1033.2
20260510113024 52 248 0.0 3.0 0.00 0.00 0.00 86 1033.1
20260510111524 52 247 0.0 0.0 0.00 0.00 0.00 87 1033.0
20260510110026 52 247 0.0 0.0 0.00 0.00 0.00 87 1033.0
20260510104522 52 247 0.0 0.0 0.00 0.00 0.00 87 1032.9
20260510103020 52 247 0.0 0.0 0.00 0.00 0.00 88 1032.7
20260510101519 52 247 0.0 0.0 0.00 0.00 0.00 88 1032.6
20260510100017 52 247 0.0 0.0 0.00 0.00 0.00 88 1032.5
20260510094534 52 247 0.0 0.0 0.00 0.00 0.00 88 1032.5
20260510093015 52 247 0.0 0.0 0.00 0.00 0.00 88 1032.4
20260510091514 52 247 0.0 0.0 0.00 0.00 0.00 88 1032.3
20260510090012 52 247 0.0 0.0 0.00 0.00 0.00 88 1032.0
20260510084517 51 247 0.0 0.0 0.00 0.00 0.00 87 1031.7
20260510083008 52 247 0.0 0.0 0.00 0.00 0.00 86 1031.6
20260510081506 52 247 0.0 0.0 0.00 0.00 0.00 84 1031.1
20260510080007 52 247 0.0 0.0 0.00 0.00 0.00 82 1030.9
20260510074502 54 247 0.0 0.0 0.00 0.00 0.00 81 1030.6
20260510073005 55 247 0.0 0.0 0.00 0.00 0.00 79 1030.3
20260510071501 56 247 0.0 0.0 0.00 0.00 0.00 77 1030.1
20260510070100 57 247 0.0 2.0 0.00 0.00 0.00 75 1029.8
20260510064605 58 313 0.0 0.0 0.00 0.00 0.00 72 1029.5
20260510063100 59 313 0.0 4.0 0.00 0.00 0.00 69 1029.3
20260510061601 60 256 0.0 3.0 0.00 0.00 0.00 64 1029.2
20260510060059 63 319 1.0 4.0 0.00 0.00 0.00 59 1029.1
20260510054557 64 328 2.0 5.0 0.00 0.00 0.00 56 1029.0
20260510053056 66 277 1.0 4.0 0.00 0.00 0.00 50 1028.8
20260510051603 67 329 0.0 4.0 0.00 0.00 0.00 51 1028.6
20260510050059 67 304 0.0 0.0 0.00 0.00 0.00 48 1028.5
20260510044604 68 342 0.0 0.0 0.00 0.00 0.00 47 1028.5
20260510043052 69 300 0.0 0.0 0.00 0.00 0.00 46 1028.4
20260510041547 70 344 0.0 0.0 0.00 0.00 0.00 44 1028.4
20260510040049 70 301 0.0 0.0 0.00 0.00 0.00 44 1028.4
20260510034544 70 85 0.0 0.0 0.00 0.00 0.00 44 1028.4
20260510033042 70 283 0.0 0.0 0.00 0.00 0.00 45 1028.3
20260510031539 69 325 0.0 0.0 0.00 0.00 0.00 47 1028.5
20260510030050 69 322 0.0 0.0 0.00 0.00 0.00 48 1028.6
20260510024537 69 308 0.0 0.0 0.00 0.00 0.00 48 1028.8
20260510023035 69 286 0.0 0.0 0.00 0.00 0.00 51 1029.0
20260510021534 69 284 0.0 0.0 0.00 0.00 0.00 52 1029.2
20260510020031 68 320 0.0 0.0 0.00 0.00 0.00 52 1029.4
20260510014527 67 287 0.0 0.0 0.00 0.00 0.00 53 1029.5
20260510013023 66 263 0.0 0.0 0.00 0.00 0.00 55 1029.7
20260510011520 66 271 0.0 0.0 0.00 0.00 0.00 55 1029.8
20260510010016 65 263 0.0 0.0 0.00 0.00 0.00 57 1029.9
20260510004512 64 263 0.0 0.0 0.00 0.00 0.00 61 1030.0
20260510003021 64 261 0.0 0.0 0.00 0.00 0.00 62 1030.1
20260510001504 61 261 0.0 0.0 0.00 0.00 0.00 63 1030.1
20260510000103 58 125 0.0 0.0 0.00 0.00 0.00 70 1030.2
20260509234556 54 125 0.0 0.0 0.00 0.00 0.00 84 1030.3
20260509233050 51 125 0.0 0.0 0.00 0.00 0.00 90 1030.3
20260509231547 49 125 0.0 0.0 0.00 0.00 0.00 91 1030.5
20260509230043 47 125 0.0 0.0 0.00 0.00 0.00 91 1030.5
20260509224538 44 125 0.0 0.0 0.00 0.00 0.00 91 1030.6
20260509223035 41 125 0.0 0.0 0.00 0.00 0.00 91 1030.6
20260509221533 38 127 0.0 0.0 0.00 0.00 0.00 91 1030.5
20260509220030 36 127 0.0 0.0 0.00 0.00 0.00 91 1030.4
20260509214527 35 127 0.0 0.0 0.00 0.00 0.00 91 1030.4
20260509213024 35 127 0.0 0.0 0.00 0.00 0.00 91 1030.3
20260509211522 35 127 0.0 0.0 0.00 0.00 0.00 91 1030.1
20260509210021 34 127 0.0 0.0 0.00 0.00 0.00 91 1029.7
20260509204520 34 127 0.0 0.0 0.00 0.00 0.00 91 1029.6
20260509203015 34 127 0.0 0.0 0.00 0.00 0.00 91 1029.4
20260509201513 34 127 0.0 0.0 0.00 0.00 0.00 91 1029.2
20260509200012 34 127 0.0 0.0 0.00 0.00 0.00 91 1029.1
20260509194509 34 127 0.0 0.0 0.00 0.00 0.00 91 1028.9
20260509193007 35 127 0.0 0.0 0.00 0.00 0.00 91 1028.7
20260509191510 35 127 0.0 0.0 0.00 0.00 0.00 91 1028.5
20260509190011 35 127 0.0 0.0 0.00 0.00 0.00 91 1028.3
20260509184502 35 127 0.0 0.0 0.00 0.00 0.00 91 1028.1
20260509183104 35 127 0.0 0.0 0.00 0.00 0.00 91 1028.0
20260509181602 35 127 0.0 0.0 0.00 0.00 0.00 91 1027.8
20260509180100 35 127 0.0 0.0 0.00 0.00 0.00 91 1027.7